RH
97 93 80 78 80 80 80 80 80 82 80 74 73 75 78 78 78 74 69 68 71 71 67 65 67 67 68 69 72 76 79 82 84 85 87 84 79 74 74 78 82 85 80
93 93 84 79 78 79 80 81 83 84 83 79 75 76 78 75 76 74 68 67 65 65 64 67 68 70 71 71 73 74 74 76 80 85 90 90 84 78 76 81 84 83 80
83 90 86 85 82 83 83 84 83 82 82 80 77 74 75 75 76 72 69 69 75 70 68 69 71 71 72 73 72 70 71 72 73 79 87 94 89 78 76 83 82 80 79
84 86 90 82 83 82 84 82 83 82 80 80 80 77 74 74 77 74 70 69 73 75 73 73 72 72 71 70 70 71 70 77 80 74 89 90 82 76 75 77 77 78 78
89 91 90 83 82 81 82 82 82 81 80 79 79 80 77 76 76 76 72 73 75 77 74 73 72 72 71 71 70 70 71 78 87 81 88 93 93 76 73 75 79 80 80
85 93 88 83 80 80 83 82 81 80 79 80 82 81 80 76 75 78 79 82 82 79 77 76 76 75 74 71 69 69 72 79 84 94 94 90 88 74 70 76 76 76 78
93 85 90 74 74 77 83 84 83 81 81 82 80 79 77 76 76 78 80 81 82 78 75 76 77 78 78 74 69 69 71 76 78 83 89 93 92 70 71 74 73 72 73
90 94 94 86 92 74 74 78 82 82 83 82 82 80 79 80 79 80 80 80 79 79 77 74 75 76 78 78 76 75 77 80 76 80 86 91 86 67 72 73 72 71 70
97 97 91 88 86 88 85 85 80 80 84 84 84 84 84 85 82 80 81 80 78 78 81 80 78 77 76 77 81 84 84 83 84 77 73 92 82 62 70 75 79 74 72
90 94 94 97 96 98 98 90 91 86 87 87 88 89 91 90 90 88 90 88 81 81 81 81 81 80 82 82 83 86 89 85 87 78 77 86 75 65 62 72 73 75 72
84 86 90 93 95 92 95 98 96 93 90 92 91 93 94 96 87 85 91 92 90 86 83 81 79 82 87 91 90 90 92 97 92 86 81 75 72 67 62 66 72 72 74
77 79 84 88 90 94 91 97 96 84 85 91 97 94 94 97 94 90 95 94 84 86 88 86 86 87 94 98 98 94 98 96 97 95 87 77 70 69 61 66 70 72 74
74 71 70 69 68 78 91 83 79 72 92 92 89 92 94 94 96 97 93 96 89 83 88 85 88 98 98 98 98 97 95 96 99 98 91 84 72 71 64 63 69 74 73
73 69 66 62 63 70 71 66 66 70 75 89 84 85 91 85 80 85 95 90 94 90 86 85 83 82 86 93 94 92 94 95 96 99 97 92 80 70 69 74 65 68 70
73 69 70 66 66 66 66 70 69 72 72 70 71 72 91 91 87 79 83 86 87 89 92 94 92 87 84 84 89 91 92 93 88 95 96 90 80 76 74 71 66 65 67
69 68 70 69 70 68 72 73 77 76 78 79 79 73 72 79 79 79 80 83 83 83 92 96 96 94 96 94 93 92 92 93 94 90 86 93 89 82 75 69 65 64 66
72 71 70 71 72 74 77 80 84 81 81 86 85 82 82 82 84 84 87 88 87 86 85 94 91 89 87 85 88 89 93 93 93 93 96 97 95 90 87 84 80 78 77
72 71 71 62 75 78 82 87 85 88 90 91 92 91 84 82 85 88 91 91 88 88 95 96 96 92 90 89 86 86 90 88 89 90 91 95 97 94 90 84 84 81 77
73 74 74 74 79 83 88 90 91 91 93 91 89 89 83 84 85 89 91 92 88 88 89 92 96 95 95 92 84 82 82 88 91 82 87 85 87 90 93 87 86 86 83
75 75 74 77 80 88 92 92 93 94 95 92 88 85 82 82 82 88 86 87 88 89 90 91 92 93 95 96 78 78 83 85 90 92 94 85 89 87 91 92 94 95 86
78 77 76 77 86 83 88 88 91 94 94 92 89 83 83 82 81 86 86 85 87 89 92 89 93 94 94 93 92 85 84 84 91 88 94 96 95 94 93 94 97 97 96
80 78 78 76 82 77 80 87 92 94 95 93 91 89 86 85 84 81 89 92 91 90 90 91 91 93 94 94 95 95 94 83 82 81 92 92 93 95 94 92 94 94 95
82 81 77 77 76 81 84 92 91 86 85 88 93 94 92 88 87 87 89 91 94 93 94 95 94 95 97 94 93 95 95 97 96 81 86 89 86 90 84 90 86 87 90
81 82 80 78 80 83 86 87 88 87 84 95 95 95 94 90 90 87 89 90 92 94 94 93 88 95 95 98 96 87 92 94 98 97 89 88 91 86 89 85 88 88 91
83 85 85 86 83 83 82 83 84 88 94 96 95 92 91 90 88 87 87 88 91 94 94 94 94 94 95 96 98 98 95 95 95 98 90 96 92 88 92 91 91 92 89
86 90 92 88 86 81 81 80 83 91 95 95 93 94 93 93 90 89 84 90 92 93 94 95 94 93 94 94 95 94 95 90 94 89 90 86 94 93 92 92 90 90 92
Wind_Speed
3 5 10 9 8 10 11 10 11 12 13 14 15 15 15 15 14 13 12 11 11 12 12 11 11 12 12 13 13 12 13 13 13 13 12 9 9 10 10 8 8 7 15
4 3 8 9 9 11 12 12 11 10 11 13 14 14 14 14 12 13 12 11 11 11 11 11 12 12 12 12 12 12 12 11 11 10 10 9 8 9 10 10 9 12 14
5 4 4 8 9 10 12 11 11 11 10 10 13 13 13 13 11 13 12 11 10 12 12 12 12 11 12 12 11 11 10 9 6 6 9 5 5 9 10 9 10 14 13
6 3 4 6 7 10 11 11 11 11 10 10 10 12 11 11 11 12 11 10 11 12 11 10 10 10 10 10 10 10 11 10 7 4 4 4 4 7 8 9 10 12 13
5 3 4 6 6 9 10 10 10 10 10 10 10 11 11 11 10 11 11 11 10 11 10 9 9 9 9 9 10 10 11 10 11 6 4 3 3 4 6 7 8 12 11
3 1 6 4 6 8 11 10 11 11 11 11 11 10 11 10 9 10 10 10 10 9 9 8 8 8 8 8 9 10 11 10 9 6 5 4 2 2 4 6 7 8 9
8 10 12 7 2 4 8 9 10 11 11 10 10 10 9 9 7 8 9 9 9 9 8 7 6 6 6 8 9 9 9 10 6 5 4 4 4 3 5 6 6 7 7
9 7 6 20 23 8 3 4 7 8 9 9 9 9 8 8 6 7 7 7 7 6 6 6 6 5 4 5 7 8 8 8 5 4 3 3 6 6 5 7 7 6 6
5 9 9 9 12 11 6 7 5 5 6 6 6 7 7 7 6 6 6 5 5 5 4 4 4 4 3 3 5 6 7 7 4 3 2 2 7 7 5 4 6 7 6
7 6 5 5 4 2 4 4 6 9 6 7 6 6 7 8 9 9 8 6 1 2 2 3 3 2 1 2 3 4 6 6 3 3 3 2 6 6 5 2 3 5 6
5 5 5 4 3 4 4 3 4 3 10 7 7 7 6 4 5 6 7 8 8 7 4 2 2 2 3 4 4 4 4 2 2 2 2 7 7 5 3 3 3 4 6
4 4 4 4 4 1 3 2 3 4 4 4 4 4 4 4 4 5 5 7 9 8 7 8 8 6 4 2 2 3 1 1 1 2 2 7 6 5 2 3 2 3 3
3 3 5 3 3 3 3 2 2 3 3 3 5 5 2 2 3 3 3 3 4 6 4 5 4 3 3 2 3 2 0 0 0 1 3 8 7 6 5 2 2 3 3
3 4 4 3 5 5 3 3 4 3 3 4 4 6 4 3 4 4 2 4 4 3 4 4 3 3 5 5 5 5 5 3 1 2 3 7 8 7 6 8 4 4 4
4 3 3 4 6 5 5 3 4 4 4 4 5 6 2 3 4 4 4 4 4 3 3 3 3 3 4 4 4 5 5 5 5 2 2 6 6 5 5 6 4 5 6
6 6 5 5 4 6 5 5 4 4 4 5 4 4 5 4 3 4 3 4 4 4 3 3 3 3 3 3 5 4 5 4 5 4 3 3 6 6 7 6 6 6 7
3 5 6 8 6 6 5 5 4 4 4 4 4 6 6 5 5 4 4 4 3 3 3 3 2 2 4 3 4 3 2 3 3 4 4 3 4 6 5 7 8 9 9
5 6 5 5 7 7 6 4 4 4 4 4 4 4 6 5 5 5 4 4 3 4 3 3 4 3 3 4 3 3 3 3 4 4 3 3 3 2 4 7 8 8 9
6 7 6 6 7 7 6 5 5 6 4 4 4 4 5 6 5 5 4 4 4 4 4 3 3 3 2 3 4 4 4 3 4 3 5 4 3 2 2 4 6 7 8
7 5 6 5 7 7 5 5 4 4 4 4 4 4 5 5 5 5 4 5 4 4 4 3 4 3 2 3 4 4 4 3 2 3 4 3 3 3 3 2 3 4 8
7 7 7 7 5 5 3 4 3 3 2 3 4 5 5 5 6 5 4 4 4 4 4 4 2 4 4 4 3 4 3 3 2 3 3 3 4 3 2 3 3 3 4
7 8 8 7 7 3 3 2 3 3 3 3 3 5 6 6 6 5 5 5 5 4 5 5 5 3 3 4 3 1 4 4 4 3 3 4 5 3 3 4 4 4 3
9 8 8 7 7 5 5 4 4 4 3 3 3 3 4 5 5 5 5 5 5 4 4 4 4 5 3 3 5 2 3 2 4 2 3 3 5 3 3 4 5 4 4
7 6 5 5 6 5 6 4 4 3 3 1 2 1 3 5 5 5 5 5 5 3 4 2 3 2 2 2 2 3 2 1 1 4 3 3 4 4 4 3 4 5 4
8 7 7 7 6 5 5 5 4 4 3 2 2 3 3 3 5 5 5 5 5 3 3 4 3 3 1 2 1 2 2 2 2 3 6 4 4 4 4 3 4 4 3
6 7 7 7 5 6 6 6 7 7 5 4 2 2 2 2 3 5 5 5 4 4 4 4 3 3 1 1 1 1 0 2 3 3 4 5 5 4 3 4 4 4 4
Wind_Direction
223 191 168 169 171 157 150 145 143 139 135 132 129 128 125 121 119 111 104 101 99 96 95 91 88 82 80 78 78 70 66 63 62 56 48 52 78 90 92 93 101 100 105
124 204 169 172 177 162 154 146 138 135 141 136 132 127 123 122 121 114 110 108 111 109 106 96 90 87 83 80 77 72 62 57 59 56 46 40 64 82 93 92 97 107 108
157 175 179 194 181 173 152 144 140 143 145 144 136 130 127 123 122 117 114 110 103 120 102 97 92 89 84 84 79 69 57 42 40 55 58 40 53 82 94 94 108 105 105
145 171 151 171 166 170 151 145 145 142 143 152 152 135 130 126 121 122 121 116 103 98 98 98 94 90 85 82 77 63 50 53 54 95 60 47 30 73 81 93 97 101 106
140 149 153 153 167 159 154 146 148 143 143 144 146 144 136 134 129 129 129 125 116 114 114 110 101 90 83 81 74 61 53 59 58 71 68 53 28 55 75 81 104 101 103
183 166 143 150 176 163 146 148 148 145 145 142 140 141 129 129 135 136 132 129 128 127 124 119 109 98 87 79 77 64 59 67 58 57 53 13 3 278 111 102 101 113 115
61 48 11 34 333 180 162 150 149 148 147 145 140 143 140 142 142 149 145 144 144 141 138 133 122 102 87 80 73 67 56 57 58 52 40 15 339 278 166 142 137 132 130
116 86 83 57 324 316 293 198 175 161 148 138 146 149 147 130 128 131 142 149 152 152 142 138 129 118 96 81 78 74 61 51 43 32 14 358 340 4 196 166 163 158 154
52 107 126 168 189 286 6 25 311 180 138 136 134 134 129 119 123 125 132 150 161 160 157 145 137 134 123 96 84 83 73 62 49 18 353 351 341 5 22 206 189 186 171
78 86 97 104 266 312 333 354 317 295 174 135 113 109 86 76 68 64 53 36 73 102 139 161 166 164 141 68 56 69 85 68 50 5 3 315 326 344 19 35 216 223 217
78 78 89 94 85 65 29 358 214 150 66 76 100 98 92 92 87 74 76 64 51 42 56 79 84 102 105 64 23 19 67 80 34 359 322 331 298 302 353 14 11 249 239
106 98 106 117 115 58 102 125 111 64 48 57 17 75 75 85 95 75 67 60 63 55 43 45 43 61 70 78 37 18 42 78 6 322 307 320 298 270 302 339 342 330 301
78 77 76 102 115 127 93 71 71 79 84 65 61 35 71 93 76 64 62 53 56 54 53 51 59 52 344 321 57 346 287 147 142 304 306 324 319 261 280 241 296 296 299
72 56 65 77 96 88 85 58 64 69 61 77 63 71 41 62 56 56 50 54 52 48 62 53 43 47 48 42 42 30 10 33 350 307 297 311 318 277 277 298 262 273 294
112 84 41 89 101 105 90 75 66 56 57 58 69 71 62 56 55 81 54 62 52 47 54 56 50 37 43 37 35 33 11 5 5 351 350 347 337 325 301 291 294 300 309
145 126 110 81 84 104 100 93 87 67 56 53 55 55 62 79 79 67 71 59 49 35 28 60 81 84 73 47 44 27 15 357 349 350 349 345 345 348 344 333 321 319 321
160 142 133 126 113 99 100 100 90 86 74 57 53 63 69 63 72 76 58 52 37 36 40 37 37 36 47 25 25 348 338 338 346 345 333 330 333 345 340 322 311 303 301
149 151 140 113 112 100 97 91 83 77 85 76 64 44 50 68 69 66 67 47 37 47 49 44 24 34 43 22 347 331 324 313 307 304 308 324 336 345 343 337 326 312 305
169 150 136 125 117 111 101 87 81 82 72 68 64 67 57 52 54 64 50 32 37 46 45 31 41 52 26 354 327 320 312 315 315 319 296 286 287 311 316 322 328 317 307
156 152 131 124 124 115 103 89 65 63 59 60 55 57 59 65 58 67 49 37 35 42 26 20 34 10 44 357 316 313 307 318 337 337 322 309 299 292 302 321 324 316 328
158 151 153 138 144 127 102 102 77 74 44 51 47 54 49 57 57 61 60 44 39 50 40 25 19 27 16 346 355 331 341 17 57 4 2 24 28 12 5 356 347 326 326
163 165 158 150 154 141 99 115 123 135 87 67 39 44 43 47 45 56 54 44 41 52 40 33 32 3 3 23 20 336 1 336 2 17 18 50 43 23 28 12 358 356 331
173 179 164 157 155 148 125 106 82 72 60 60 21 30 28 65 68 61 59 62 49 47 40 33 29 42 8 354 14 60 2 330 324 327 351 14 14 20 25 3 356 344 335
173 142 136 138 139 137 141 128 130 137 134 152 121 91 55 56 67 71 68 58 58 56 54 38 46 51 66 41 333 16 46 233 323 323 330 354 4 3 338 330 334 326 337
139 149 147 131 119 118 120 134 122 112 114 122 92 89 62 49 57 60 59 52 47 42 37 44 31 38 62 96 64 351 336 305 268 251 288 319 345 330 292 299 307 302 318
139 137 141 132 123 122 119 123 129 137 137 124 114 91 54 42 46 40 50 46 45 39 25 14 8 7 336 335 181 154 276 319 326 307 305 314 286 294 290 293 293 307 326